Regional Weather Roundup
Issued by NWS

Home | Current Version | Previous Version | Graphics & Text | Print | Product List | Glossary On
Versions: 1 2 3 4 5 6 7 8 9 10 11 12 13 14 15 16 17 18 19 20 21 22 23 24 25 26 27 28 29 30 31 32 33 34 35 36 37 38 39 40 41 42 43 44 45 46 47 48 49 50
000
ASUS45 KSLC 211310
RWRUT

UTAH REGIONAL WEATHER ROUNDUP
NATIONAL WEATHER SERVICE SALT LAKE CITY UT
700 AM MDT THU AUG 21 2014

UTZ001>011-023>025-211400-

NORTHERN UTAH

CITY           SKY/WX    TMP DP  RH WIND       PRES   REMARKS
HILL AFB       CLOUDY    61  52  72 E15       30.05S
LOGAN          MOCLDY    58  56  93 NW3       30.06S
OGDEN          CLOUDY    62  54  74 S6        30.03F
PROVO AIRPORT  MOCLDY    61  48  63 CALM      30.10R
SALT LAKE CITY CLOUDY    67  52  58 S7        30.03R
VERNAL         CLEAR     53  48  83 W5        30.16R
WENDOVER       CLOUDY    68  52  56 N16       30.04R
HEBER CITY     MOCLDY    52  50  93 CALM      30.16R
WEST JORDAN    CLOUDY    66  57  72 S14       30.05R

$$

UTZ012>022-026-027-211400-

SOUTHERN UTAH

CITY           SKY/WX    TMP DP  RH WIND       PRES   REMARKS
BRYCE CANYON   MOCLDY    43  40  89 W8        30.30R
CEDAR CITY     PTCLDY    57  46  66 S3        30.15S
MILFORD        PTCLDY    58  47  66 SW13      30.11R
MOAB/CYNLANDS  CLEAR     56  54  93 CALM      30.09R
PRICE          MOCLDY    55  46  71 CALM      30.17R
ST GEORGE      PTSUNNY   66  55  68 CALM      30.04R

$$

REGIONAL REPORTS     COLORADO/ARIZONA

CITY           SKY/WX    TMP DP  RH WIND       PRES   REMARKS
CRAIG, CO      CLEAR     53  50  89 SE5       30.21R
GRAND JUNCTION PTCLDY    55  49  80 SE8       30.14R
RIFLE          CLEAR     54  49  83 S3        30.19R
MONTROSE       CLEAR     53  45  74 S6        30.22R
CORTEZ         CLEAR     48  43  82 E3        30.21R
PAGE, AZ       PTCLDY    65  48  54 SW3       30.10R
GRAND CANYON     N/A    N/A N/A N/A MISG        N/A
KINGMAN        CLOUDY    71  51  49 SE14      30.04R
FLAGSTAFF      PTCLDY    47  44  90 CALM      30.27R

$$

REGIONAL REPORTS    NEVADA/IDAHO/WYOMING

CITY           SKY/WX    TMP DP  RH WIND       PRES   REMARKS
LAS VEGAS, NV  PTCLDY    76  47  35 S7        29.90R
ELY            MOCLDY    55  40  56 S12       30.17R
ELKO           MOCLDY    62  47  57 E5        30.04R
POCATELLO, ID  LGT RAIN  57  56  96 CALM      30.06S
BURLEY         CLOUDY    57  54  89 CALM      30.00S
EVANSTON, WY   CLOUDY    50  48  93 S7        30.19R
ROCK SPRINGS   PTCLDY    47  44  90 NE5       30.19

$$


USA.gov is the U.S. government's official web portal to all federal, state and local government web resources and services.